Flag for Egypt Weather past 2 weeks in Al Jizah, Egypt

Now
95 °F

Sunny.


Feels Like: 90 °F
Forecast: 62 / 94 °F
Wind: 14 mph from Southwest

Location: Cairo Airport

Current Time: Apr 27, 2015 at 1:33:30 PM

Latest Report: Apr 27, 2015 at 1:00 PM


Visibility: 10 mi

Pressure: 29.83 "Hg

Humidity: 10%

Dew point: 30 °F

Location of Al JizahLocation

Historic Weather in Al Jizah — Graph

°F

Al Jizah temperature yesterday

Maximum temperature yesterday: 86 °F (at 3:30 PM)
Minimum temperature yesterday: 55 °F (at 4:30 AM)
Average temperature yesterday: 71 °F

Past Weeks' High & Low Weather Summary

 TemperatureHumidityPressure
High95 °F (Apr 20, 2:30 PM)94% (Apr 14, 4:30 AM)30.33 "Hg (Apr 14, 4:30 AM)
Low54 °F (Apr 13, 4:30 AM)8% (Apr 20, 1:30 PM)29.83 "Hg (Apr 27, 3:30 AM)
Average68 °F45%30.08 "Hg
* Reported Apr 12 12:00 Noon — Apr 27 12:30 PM, Al Jizah, Weather by CustomWeather, © 2015

Note: Actual official high and low records may vary slightly from our data, if they occured in-between our weather recording intervals... More about our weather records

Advertising

Al Jizah weather history for previous 24 hours

 ConditionsComfort  
Time TempWeatherWind HumidityBarometerVisibility
12:30 PM
Mon, Apr 27
95 °FSunny.13 mph10%29.83 "Hg10 mi
12:00 PM93 °FSunny.12 mph10%29.86 "Hg10 mi
11:30 AM93 °FSunny.10 mph10%29.86 "Hg10 mi
11:00 AM93 °FSunny.10 mph11%29.86 "Hg10 mi
10:30 AM93 °FClear.8 mph10%29.86 "Hg4 mi
10:00 AM91 °FClear.6 mph10%29.86 "Hg4 mi
9:30 AM91 °FHaze.No wind10%29.86 "Hg2 mi
9:00 AM90 °FHaze.No wind12%29.86 "Hg2 mi
8:30 AM86 °FHaze.No wind18%29.86 "Hg2 mi
8:00 AM81 °FHaze.No wind26%29.86 "Hg2 mi
7:30 AM81 °FClear.No wind26%29.86 "Hg4 mi
7:00 AM73 °FClear.No wind31%29.86 "Hg4 mi
6:30 AM72 °FSunny.2 mph33%29.86 "Hg10 mi
6:00 AM70 °FSunny.2 mph38%29.86 "Hg10 mi
5:30 AM70 °FSunny.2 mph35%29.86 "Hg10 mi
5:00 AM70 °FClear.No wind25%29.83 "Hg10 mi
4:30 AM68 °FClear.No wind26%29.83 "Hg10 mi
4:00 AM72 °FClear.No wind25%29.83 "Hg10 mi
3:30 AM68 °FClear.No wind33%29.83 "Hg10 mi
3:00 AM70 °FClear.No wind33%29.86 "Hg10 mi
2:30 AM68 °FClear.2 mph43%29.86 "Hg10 mi
2:00 AM68 °FClear.8 mph46%29.89 "Hg10 mi
1:30 AM68 °FClear.3 mph46%29.86 "Hg10 mi
1:00 AM68 °FClear.3 mph46%29.89 "Hg10 mi
12:30 AM68 °FClear.3 mph46%29.89 "Hg10 mi
12:00 AM70 °FClear.3 mph43%29.89 "Hg10 mi
11:30 PM
Sun, Apr 26
70 °FClear.5 mph43%29.92 "Hg10 mi
11:00 PM70 °FClear.5 mph43%29.92 "Hg10 mi
10:30 PM72 °FClear.3 mph41%29.92 "Hg10 mi
10:00 PM72 °FClear.3 mph41%29.92 "Hg10 mi
9:30 PM75 °FClear.9 mph34%29.92 "Hg10 mi
9:00 PM75 °FClear.9 mph34%29.92 "Hg10 mi
8:30 PM77 °FClear.8 mph32%29.89 "Hg10 mi
8:00 PM77 °FClear.8 mph32%29.89 "Hg10 mi
7:30 PM79 °FClear.8 mph30%29.89 "Hg10 mi
7:00 PM81 °FClear.8 mph28%29.89 "Hg10 mi
6:30 PM82 °FClear.9 mph21%29.89 "Hg10 mi
6:00 PM84 °FSunny.8 mph20%29.89 "Hg10 mi
5:30 PM84 °FSunny.7 mph19%29.89 "Hg10 mi
5:00 PM84 °FSunny.6 mph18%29.89 "Hg10 mi
4:30 PM86 °FSunny.7 mph18%29.89 "Hg10 mi
4:00 PM86 °FSunny.7 mph15%29.89 "Hg10 mi
3:30 PM86 °FSunny.5 mph17%29.89 "Hg10 mi
3:00 PM84 °FSunny.6 mph18%29.92 "Hg10 mi
2:30 PM84 °FSunny.7 mph18%29.92 "Hg10 mi
2:00 PM82 °FSunny.7 mph17%29.95 "Hg10 mi
1:30 PM82 °FSunny.6 mph19%29.95 "Hg10 mi
1:00 PM81 °FSunny.8 mph20%29.95 "Hg10 mi
Weather by CustomWeather, © 2015

See weather overviewHow to use our weather pages